[[{"header":{"parameterUnit":"m.s-1","parameterCategory":1,"la1":30.2991,"la2":30.254,"lo1":-89.0895,"lo2":-89.0444,"dy":0.0017,"dx":0.0017,"nx":28,"ny":28,"refTime":"2023-10-03T09:00:00:Z","depth":0,"parameterNumber":2,"parameterNumberName":"U-component_of_WINDS"},"data":[0,0,0,0,0,0,0,0,0,0,0,0,0,0,0,0,0,0,0,0,0,0,0,0,0,0,0,0,0,0,0,0,0,0,0,0,0,0,0,0,0,0,0,0,0,0,0,0,0,0,0,0,0,0,0,0,0,0,-5.0715,-5.0714,0,-5.0691,-5.0691,-5.0691,-5.058,-5.0578,-5.0575,-5.0572,-5.055,-5.0551,-5.0553,0,0,0,0,0,0,0,0,0,0,0,0,0,-5.0667,-5.0669,-5.0715,-5.0714,-5.0714,-5.0691,-5.0691,-5.0691,-5.0581,-5.0577,-5.0574,-5.0571,-5.0549,-5.0551,-5.0553,0,0,0,0,0,0,0,0,0,0,0,0,0,-5.067,-5.0669,-5.0715,-5.0656,-5.0651,-5.0691,-5.0691,-5.0691,-5.0581,-5.0577,-5.0573,-5.057,-5.0548,-5.0551,-5.0554,-5.0649,0,0,-5.0562,-5.0563,0,0,0,0,0,0,0,0,-5.067,-5.0672,-5.0665,-5.0661,-5.0654,-5.0635,-5.0666,-5.0677,-5.0582,-5.0608,-5.0572,-5.0568,-5.0581,-5.0581,-5.0585,-5.0648,-5.0647,-5.0562,-5.0564,-5.0565,-5.0566,0,0,0,0,0,0,0,-5.067,-5.0673,-5.0705,-5.0665,-5.0659,-5.0632,-5.0629,-5.0667,-5.0617,-5.0605,-5.0597,-5.0596,-5.0577,-5.0583,-5.0584,-5.0646,-5.0562,-5.0565,-5.0566,-5.0567,-5.0787,-5.0791,0,0,0,0,0,0,-5.0678,-5.0673,-5.0706,-5.0705,-5.0653,-5.0637,-5.0632,-5.0645,-5.0616,-5.0608,-5.0599,-5.0591,-5.058,-5.0581,-5.0583,-5.0691,-5.0565,-5.0568,-5.0569,-5.0783,-5.0788,-5.0793,0,0,0,0,0,0,-5.0677,-5.0682,-5.0707,-5.0687,-5.0688,-5.0641,-5.0657,-5.0647,-5.0651,-5.0611,-5.0602,-5.0614,-5.0577,-5.0579,-5.0633,-5.0689,-5.0569,-5.0571,-5.0778,-5.0785,-5.079,-5.0911,0,0,0,0,0,0,-5.0676,-5.0682,-5.0717,-5.0688,-5.0689,-5.0757,-5.066,-5.0649,-5.0656,-5.0645,-5.0622,-5.0615,-5.0574,-5.063,-5.0636,-5.0691,-5.0573,-5.0773,-5.0781,-5.0788,-5.0901,-5.092,-5.0936,0,0,0,0,0,-5.0675,-5.0751,-5.0719,-5.0724,-5.0732,-5.0761,-5.0761,-5.0712,-5.0662,-5.0696,-5.0671,-5.0616,-5.0683,-5.0636,-5.0642,-5.0699,-5.0769,-5.0779,-5.0788,-5.0893,-5.0916,-5.0936,0,0,0,0,0,0,-5.0787,-5.0746,-5.071,-5.0779,-5.0775,-5.0742,-5.0784,-5.0738,-5.0748,-5.0737,-5.0676,-5.0672,-5.0736,-5.0723,-5.0672,-5.079,-5.0717,-5.0728,-5.0795,-5.0817,-5.0834,-5.0834,-5.0576,0,0,0,0,0,-5.082,-5.0847,-5.081,-5.0875,-5.0874,-5.0831,-5.0841,-5.0805,-5.0797,-5.0794,-5.0772,-5.0768,-5.0788,-5.0802,-5.0818,-5.0901,-5.0894,-5.0943,-5.096,-5.0975,-5.0984,-5.1027,-5.1048,-5.0824,-5.0824,-5.0823,0,0,-5.0888,-5.0869,-5.0889,-5.0897,-5.0889,-5.0918,-5.0829,-5.0864,-5.0885,-5.0799,-5.0849,-5.0834,-5.0825,-5.0894,-5.0923,-5.0885,-5.1046,-5.0987,-5.0999,-5.1,-5.1039,-5.106,-5.1079,-5.083,-5.0829,-5.0828,0,0,-5.1025,-5.1015,-5.1067,-5.1062,-5.1051,-5.1022,-5.1035,-5.101,-5.0997,-5.1046,-5.0983,-5.1009,-5.1045,-5.1041,-5.1044,-5.1186,-5.1135,-5.1193,-5.1283,-5.1326,-5.1343,-5.1359,-5.1408,-5.1426,-5.1203,-5.1204,-5.1204,0,-5.111,-5.1151,-5.11,-5.1139,-5.1145,-5.1071,-5.1124,-5.1122,-5.1117,-5.1123,-5.1082,-5.1126,-5.1115,-5.1182,-5.1217,-5.1222,-5.1236,-5.1193,-5.1345,-5.136,-5.1373,-5.142,-5.1439,-5.121,-5.121,-5.1209,-5.1208,0,-5.1256,-5.1287,-5.1331,-5.1328,-5.134,-5.1386,-5.1343,-5.1361,-5.1326,-5.1301,-5.1354,-5.1339,-5.1351,-5.1365,-5.133,-5.1428,-5.1405,-5.1356,-5.128,-5.1402,-5.1445,-5.1462,-5.122,-5.1218,-5.1216,-5.1214,0,0,-5.1458,-5.1431,-5.1447,-5.1446,-5.1431,-5.1453,-5.1499,-5.1511,-5.1527,-5.1528,-5.1564,-5.1598,-5.1553,-5.1556,-5.1521,-5.1559,-5.1672,-5.1505,-5.1503,-5.1534,-5.1778,-5.1813,-5.1835,-5.164,-5.1643,-5.1646,-5.1778,0,-5.1589,-5.1661,-5.1618,-5.1698,-5.1725,-5.1658,-5.1697,-5.1693,-5.1673,-5.1694,-5.1672,-5.1697,-5.1636,-5.1638,-5.1673,-5.165,-5.1719,-5.1641,-5.1671,-5.1673,-5.1672,-5.1857,-5.1894,-5.2019,-5.1795,-5.1798,-5.18,0,-5.1748,-5.1757,-5.1839,-5.1821,-5.1831,-5.1866,-5.1875,-5.1897,-5.1892,-5.1875,-5.1881,-5.1837,-5.1881,-5.181,-5.1869,-5.1817,-5.1828,-5.1819,-5.1823,-5.1821,-5.1741,-5.1858,-5.2058,-5.2077,-5.1826,-5.1824,-5.1822,0,-5.1885,-5.1918,-5.1971,-5.1973,-5.1953,-5.198,-5.1973,-5.1964,-5.1975,-5.1984,-5.1991,-5.2005,-5.2012,-5.2025,-5.1987,-5.1939,-5.2052,-5.1977,-5.2038,-5.2039,-5.2061,-5.206,-5.2264,-5.2074,-5.2074,-5.2073,-5.2073,0,-5.2033,-5.2085,-5.2033,-5.2065,-5.2123,-5.2076,-5.2134,-5.212,-5.2114,-5.2143,-5.2088,-5.2117,-5.2066,-5.2091,-5.2062,-5.2115,-5.2119,-5.2107,-5.2098,-5.211,-5.2111,-5.2113,-5.2103,-5.2078,-5.2077,-5.2076,-5.2075,0,-5.2193,-5.216,-5.2214,-5.2192,-5.2189,-5.2232,-5.2213,-5.2243,-5.2222,-5.226,-5.2266,-5.2232,-5.2258,-5.2223,-5.2246,-5.2226,-5.2299,-5.2278,-5.23,-5.2293,-5.2355,-5.2349,-5.2565,-5.2591,-5.2388,-5.239,-5.2392,0,-5.2287,-5.2326,-5.231,-5.2326,-5.2323,-5.2349,-5.236,-5.2317,-5.2331,-5.2331,-5.2361,-5.2383,-5.2397,-5.2443,-5.242,-5.2438,-5.2416,-5.2491,-5.2418,-5.2429,-5.2414,-5.2411,-5.2415,-5.2504,-5.2507,-5.2509,-5.251,0,-5.2458,-5.2441,-5.2459,-5.2474,-5.2489,-5.2498,-5.2503,-5.2519,-5.2474,-5.2494,-5.252,-5.2532,-5.2556,-5.2578,-5.2591,-5.2584,-5.254,-5.2535,-5.2549,-5.256,-5.257,-5.2564,-5.2338,-5.2528,-5.2527,-5.2525,-5.2524,-5.2524,-5.2586,-5.2618,-5.2612,-5.2636,-5.2635,-5.2642,-5.2669,-5.2652,-5.2674,-5.2689,-5.2664,-5.2697,-5.2694,-5.2706,-5.2706,-5.2732,-5.2699,-5.2721,-5.2726,-5.2731,-5.274,-5.257,-5.2734,-5.2734,-5.2733,-5.2733,-5.2732,0,-5.2752,-5.2746,-5.2768,-5.2778,-5.2797,-5.2756,-5.276,-5.2778,-5.2809,-5.281,-5.2826,-5.2858,-5.288,-5.2862,-5.288,-5.2905,-5.2885,-5.2911,-5.2907,-5.2906,-5.2768,-5.2753,-5.2927,-5.2927,-5.2927,-5.2927,-5.2927,-5.2927,-5.284,-5.2892,-5.2875,-5.2928,-5.2921,-5.2953,-5.296,-5.2966,-5.2967,-5.3004,-5.3023,-5.3011,-5.3005,-5.3023,-5.3042,-5.3036,-5.3045,-5.3078,-5.3065,-5.2935,-5.2916,-5.2898,-5.2882,-5.3081,-5.3081,-5.32,-5.3201,-5.3202]},{"header":{"parameterUnit":"m.s-1","parameterCategory":1,"la1":30.2991,"la2":30.254,"lo1":-89.0895,"lo2":-89.0444,"dy":0.0017,"dx":0.0017,"nx":28,"ny":28,"refTime":"2023-10-03T09:00:00:Z","depth":0,"parameterNumber":3,"parameterNumberName":"V-component_of_WINDS"},"data":[0,0,0,0,0,0,0,0,0,0,0,0,0,0,0,0,0,0,0,0,0,0,0,0,0,0,0,0,0,0,0,0,0,0,0,0,0,0,0,0,0,0,0,0,0,0,0,0,0,0,0,0,0,0,0,0,0,0,2.9889,2.9889,0,2.9873,2.9873,2.9872,2.9913,2.9914,2.9915,2.9917,2.9891,2.9889,2.9887,0,0,0,0,0,0,0,0,0,0,0,0,0,2.995,2.9948,2.9889,2.9889,2.9889,2.9873,2.9872,2.9872,2.9913,2.9914,2.9916,2.9917,2.9891,2.9889,2.9887,0,0,0,0,0,0,0,0,0,0,0,0,0,2.9927,2.9948,2.9889,2.9907,2.9909,2.9873,2.9872,2.9872,2.9912,2.9914,2.9916,2.9918,2.9892,2.9889,2.9886,2.983,0,0,2.9878,2.9876,0,0,0,0,0,0,0,0,2.9928,2.9925,2.9905,2.9906,2.9908,2.9897,2.9884,2.9858,2.9912,2.9911,2.9917,2.9919,2.9891,2.9888,2.988,2.9828,2.9827,2.9877,2.9876,2.9874,2.9874,0,0,0,0,0,0,0,2.993,2.9926,2.9883,2.9905,2.9906,2.9914,2.9913,2.9879,2.9889,2.9911,2.9914,2.9912,2.9892,2.9883,2.988,2.9827,2.9878,2.9875,2.9873,2.9872,2.9729,2.9727,0,0,0,0,0,0,2.993,2.9927,2.9883,2.9882,2.9923,2.9911,2.991,2.9898,2.989,2.9891,2.991,2.9914,2.9887,2.9883,2.9879,2.9813,2.9875,2.9872,2.987,2.9731,2.9728,2.9726,0,0,0,0,0,0,2.9931,2.9926,2.9884,2.9905,2.9901,2.9908,2.9894,2.9897,2.9888,2.989,2.9891,2.99,2.9888,2.9883,2.9843,2.9812,2.9871,2.9868,2.9733,2.973,2.9727,2.9678,0,0,0,0,0,0,2.9933,2.9926,2.9906,2.9905,2.9899,2.9849,2.9893,2.9895,2.9884,2.9889,2.988,2.9881,2.9889,2.9847,2.984,2.9809,2.9866,2.9736,2.9732,2.9728,2.9682,2.9674,2.9666,0,0,0,0,0,2.9935,2.989,2.9905,2.9899,2.9875,2.9847,2.9844,2.9858,2.9882,2.9861,2.9862,2.9881,2.9817,2.9842,2.9835,2.9803,2.9738,2.9733,2.9728,2.9686,2.9675,2.9667,0,0,0,0,0,0,2.9884,2.9891,2.9906,2.9861,2.9854,2.9854,2.9828,2.9846,2.9829,2.9833,2.9849,2.9846,2.9802,2.9799,2.9826,2.9748,2.9781,2.9775,2.9752,2.9742,2.9734,2.9734,2.9863,0,0,0,0,0,2.9868,2.9848,2.9854,2.9813,2.9809,2.9819,2.9808,2.9819,2.9811,2.9807,2.9806,2.9795,2.9773,2.9757,2.9737,2.9683,2.9681,2.9658,2.965,2.9643,2.9636,2.9608,2.9598,2.971,2.971,2.971,0,0,2.9834,2.9835,2.9821,2.9803,2.9799,2.9775,2.9816,2.9789,2.9771,2.9802,2.9765,2.9763,2.9752,2.9705,2.9684,2.97,2.9606,2.9637,2.9632,2.9629,2.9602,2.9592,2.9582,2.9707,2.9708,2.9708,0,0,2.9759,2.9759,2.9725,2.9722,2.9716,2.9724,2.9716,2.9714,2.9716,2.9679,2.9702,2.968,2.9642,2.9633,2.9624,2.955,2.9566,2.9543,2.9499,2.9471,2.9463,2.9455,2.9428,2.9418,2.9537,2.9536,2.9536,0,2.9716,2.9685,2.9705,2.9678,2.9669,2.97,2.9665,2.966,2.9646,2.9639,2.9658,2.9612,2.9607,2.9558,2.9541,2.9533,2.9523,2.9542,2.9463,2.9455,2.9448,2.9422,2.9412,2.9534,2.9534,2.9534,2.9534,0,2.9632,2.961,2.9583,2.9574,2.9562,2.9531,2.9545,2.953,2.9544,2.9548,2.9511,2.9506,2.9486,2.9476,2.9487,2.9429,2.944,2.9461,2.9494,2.9434,2.941,2.94,2.9529,2.953,2.9531,2.9532,0,0,2.9522,2.9527,2.9517,2.9514,2.9511,2.9493,2.9464,2.9447,2.9434,2.9425,2.9399,2.9367,2.9388,2.9377,2.9388,2.9364,2.9306,2.9388,2.9388,2.9372,2.9241,2.9224,2.9212,2.9318,2.9316,2.9315,2.9242,0,2.9448,2.9401,2.9419,2.9368,2.9348,2.9379,2.9353,2.9347,2.9352,2.9333,2.9337,2.9315,2.9344,2.9338,2.9316,2.9317,2.9279,2.9323,2.9292,2.929,2.9292,2.92,2.9181,2.9113,2.9233,2.9231,2.923,0,2.9355,2.9346,2.9294,2.9298,2.929,2.9266,2.9253,2.9236,2.9231,2.9236,2.9226,2.9243,2.9212,2.9248,2.9205,2.9235,2.9223,2.9222,2.922,2.9216,2.9255,2.9192,2.9091,2.908,2.9215,2.9216,2.9218,0,2.928,2.9254,2.922,2.9216,2.9219,2.9202,2.9202,2.9199,2.9189,2.9177,2.917,2.9154,2.9144,2.913,2.9142,2.9167,2.9097,2.9134,2.9098,2.9098,2.908,2.9081,2.8975,2.9076,2.9076,2.9076,2.9076,0,2.9195,2.9161,2.9187,2.9165,2.9129,2.9151,2.9113,2.9117,2.9114,2.9093,2.9118,2.9097,2.9114,2.9094,2.9103,2.9066,2.9062,2.9063,2.9066,2.906,2.906,2.9051,2.9056,2.9073,2.9074,2.9074,2.9075,0,2.9103,2.9119,2.9084,2.9091,2.9092,2.9065,2.907,2.905,2.9058,2.903,2.9025,2.9036,2.9014,2.9025,2.9001,2.9007,2.896,2.8969,2.8962,2.8964,2.8928,2.8931,2.8811,2.8796,2.8908,2.8907,2.8906,0,2.9047,2.9023,2.9028,2.9018,2.9017,2.8999,2.8989,2.901,2.8998,2.8992,2.8972,2.8954,2.8939,2.8903,2.8907,2.8889,2.8897,2.8857,2.8894,2.889,2.8895,2.8896,2.8894,2.8848,2.8847,2.8846,2.8845,0,2.8945,2.8955,2.8942,2.8932,2.8921,2.8913,2.8907,2.8896,2.8916,2.8902,2.8882,2.8871,2.8849,2.883,2.8815,2.8813,2.8831,2.8834,2.8825,2.8818,2.8815,2.8815,2.894,2.8836,2.8837,2.8837,2.8838,2.8838,2.8869,2.8849,2.8851,2.8836,2.8835,2.8829,2.8811,2.8818,2.8803,2.8788,2.8801,2.8776,2.8773,2.8755,2.8751,2.8731,2.8747,2.8733,2.873,2.8726,2.8721,2.882,2.8728,2.8728,2.8729,2.8729,2.8729,0,2.8768,2.8772,2.8758,2.8751,2.8738,2.8762,2.8757,2.8744,2.8723,2.872,2.8707,2.8684,2.8665,2.867,2.8653,2.8636,2.8644,2.8631,2.8631,2.863,2.8708,2.8717,2.8625,2.8625,2.8625,2.8625,2.8625,2.8625,2.8714,2.8683,2.8693,2.8661,2.8664,2.8643,2.8638,2.8633,2.863,2.8604,2.8591,2.8595,2.8594,2.8578,2.8562,2.8564,2.8556,2.8539,2.8543,2.8615,2.8625,2.8635,2.8644,2.8537,2.8537,2.8467,2.8467,2.8466]}]]